• In Uzbekistan
  • List of Countries
  • For 7 days
  • Water Temperature
  • Satellite Maps
  • Weather Map
  • Weather Widgets
  • user-avatar
    Login

    Hourly Weather Juigalpa

    Today, 21 February, Thursday

    Time Temperature Precipitation Wind Pressure Humidity
    00:00 +24°C° 0 mm 2 mps 751 mmHg 90%
    01:00 +24°C° 0 mm 2 mps 751 mmHg 90%
    02:00 +24°C° 0 mm 2 mps 751 mmHg 91%
    03:00 +24°C° 0 mm 2 mps 750 mmHg 92%
    04:00 +24°C° 0 mm 2 mps 751 mmHg 91%
    05:00 +24°C° 0 mm 2 mps 751 mmHg 90%
    06:00 +24°C° 0 mm 2 mps 751 mmHg 89%
    07:00 +26°C° 0 mm 3 mps 751 mmHg 82%
    08:00 +27°C° 0 mm 4 mps 752 mmHg 75%
    09:00 +29°C° 0 mm 4 mps 752 mmHg 68%
    10:00 +32°C° 0 mm 4 mps 752 mmHg 61%
    11:00 +34°C° 0 mm 5 mps 751 mmHg 54%
    12:00 +36°C° 0 mm 5 mps 751 mmHg 47%
    13:00 +35°C° 0 mm 5 mps 750 mmHg 48%
    14:00 +35°C° 0 mm 5 mps 749 mmHg 50%
    15:00 +35°C° 0 mm 5 mps 748 mmHg 51%
    16:00 +33°C° 0.1 mm 5 mps 749 mmHg 57%
    17:00 +32°C° 0.1 mm 5 mps 749 mmHg 64%
    18:00 +29°C° 0.1 mm 5 mps 749 mmHg 71%
    19:00 +28°C° 0 mm 5 mps 750 mmHg 75%
    20:00 +28°C° 0 mm 5 mps 751 mmHg 79%
    21:00 +27°C° 0 mm 5 mps 752 mmHg 83%
    22:00 +26°C° 0 mm 5 mps 752 mmHg 85%
    23:00 +26°C° 0 mm 4 mps 752 mmHg 87%

    Tomorrow, 22 February, Friday

    Time Temperature Precipitation Wind Pressure Humidity
    00:00 +26°C° 0 mm 4 mps 752 mmHg 89%
    01:00 +26°C° 0 mm 3 mps 751 mmHg 89%
    02:00 +25°C° 0 mm 3 mps 751 mmHg 90%
    03:00 +25°C° 0 mm 3 mps 751 mmHg 90%
    04:00 +25°C° 0 mm 3 mps 751 mmHg 90%
    05:00 +25°C° 0 mm 3 mps 751 mmHg 90%
    06:00 +25°C° 0 mm 3 mps 752 mmHg 90%
    07:00 +27°C° 0 mm 4 mps 752 mmHg 82%
    08:00 +28°C° 0 mm 5 mps 753 mmHg 74%
    09:00 +30°C° 0 mm 6 mps 753 mmHg 65%
    10:00 +33°C° 0 mm 6 mps 753 mmHg 59%
    11:00 +35°C° 0 mm 6 mps 752 mmHg 52%
    12:00 +36°C° 0 mm 6 mps 752 mmHg 46%
    13:00 +36°C° 0.1 mm 7 mps 751 mmHg 48%
    14:00 +35°C° 0.1 mm 7 mps 750 mmHg 49%
    15:00 +35°C° 0.1 mm 7 mps 750 mmHg 51%
    16:00 +33°C° 0 mm 7 mps 750 mmHg 59%
    17:00 +30°C° 0 mm 7 mps 751 mmHg 66%
    18:00 +28°C° 0 mm 7 mps 751 mmHg 74%
    19:00 +28°C° 0 mm 6 mps 752 mmHg 77%
    20:00 +27°C° 0 mm 6 mps 752 mmHg 80%
    21:00 +27°C° 0 mm 6 mps 753 mmHg 83%
    22:00 +26°C° 0 mm 5 mps 753 mmHg 85%
    23:00 +26°C° 0 mm 5 mps 753 mmHg 86%

    Day after tomorrow, 23 February, Saturday

    Time Temperature Precipitation Wind Pressure Humidity
    00:00 +26°C° 0 mm 4 mps 753 mmHg 88%
    01:00 +25°C° 0 mm 4 mps 752 mmHg 88%
    02:00 +25°C° 0 mm 4 mps 752 mmHg 88%
    03:00 +25°C° 0 mm 4 mps 751 mmHg 88%
    04:00 +25°C° 0 mm 3 mps 752 mmHg 89%
    05:00 +25°C° 0 mm 3 mps 752 mmHg 89%
    06:00 +25°C° 0 mm 3 mps 752 mmHg 90%
    07:00 +27°C° 0 mm 4 mps 753 mmHg 81%
    08:00 +28°C° 0 mm 5 mps 753 mmHg 71%
    09:00 +30°C° 0 mm 6 mps 754 mmHg 62%
    10:00 +33°C° 0 mm 6 mps 753 mmHg 55%
    11:00 +35°C° 0 mm 6 mps 753 mmHg 48%
    12:00 +38°C° 0 mm 6 mps 752 mmHg 41%
    13:00 +38°C° 0 mm 6 mps 751 mmHg 41%
    14:00 +38°C° 0 mm 6 mps 750 mmHg 41%
    15:00 +38°C° 0 mm 6 mps 749 mmHg 41%
    16:00 +35°C° 0 mm 6 mps 750 mmHg 48%
    17:00 +33°C° 0 mm 5 mps 750 mmHg 55%
    18:00 +32°C° 0 mm 5 mps 750 mmHg 62%
    19:00 +30°C° 0 mm 5 mps 751 mmHg 68%
    20:00 +28°C° 0 mm 5 mps 752 mmHg 75%
    21:00 +27°C° 0 mm 5 mps 753 mmHg 81%
    22:00 +27°C° 0 mm 5 mps 753 mmHg 84%
    23:00 +26°C° 0 mm 4 mps 753 mmHg 86%

    24 February, Sunday

    Time Temperature Precipitation Wind Pressure Humidity
    00:00 +26°C° 0 mm 4 mps 753 mmHg 89%
    01:00 +25°C° 0 mm 4 mps 752 mmHg 89%
    02:00 +25°C° 0 mm 3 mps 752 mmHg 90%
    03:00 +25°C° 0 mm 3 mps 751 mmHg 90%
    04:00 +25°C° 0 mm 3 mps 752 mmHg 89%
    05:00 +25°C° 0 mm 4 mps 752 mmHg 89%
    06:00 +25°C° 0 mm 4 mps 752 mmHg 88%
    07:00 +27°C° 0 mm 5 mps 753 mmHg 77%
    08:00 +29°C° 0 mm 6 mps 753 mmHg 65%
    09:00 +32°C° 0 mm 7 mps 754 mmHg 54%
    10:00 +33°C° 0 mm 8 mps 753 mmHg 51%
    11:00 +35°C° 0 mm 8 mps 752 mmHg 47%
    12:00 +37°C° 0 mm 8 mps 752 mmHg 43%
    13:00 +37°C° 0 mm 8 mps 751 mmHg 43%
    14:00 +37°C° 0 mm 8 mps 750 mmHg 43%
    15:00 +37°C° 0 mm 8 mps 749 mmHg 43%
    16:00 +34°C° 0 mm 7 mps 750 mmHg 51%
    17:00 +32°C° 0 mm 7 mps 750 mmHg 59%
    18:00 +29°C° 0 mm 6 mps 751 mmHg 68%
    19:00 +28°C° 0 mm 6 mps 751 mmHg 70%
    20:00 +27°C° 0 mm 6 mps 752 mmHg 73%
    21:00 +27°C° 0 mm 6 mps 752 mmHg 75%
    22:00 +26°C° 0 mm 6 mps 752 mmHg 79%
    23:00 +26°C° 0 mm 6 mps 752 mmHg 82%

    25 February, Monday

    Time Temperature Precipitation Wind Pressure Humidity
    00:00 +24°C° 0 mm 6 mps 752 mmHg 85%
    01:00 +26°C° 0 mm 6 mps 751 mmHg 84%
    02:00 +26°C° 0 mm 6 mps 751 mmHg 83%
    03:00 +26°C° 0 mm 6 mps 751 mmHg 83%
    04:00 +26°C° 0 mm 6 mps 751 mmHg 83%
    05:00 +26°C° 0 mm 6 mps 752 mmHg 83%
    06:00 +26°C° 0 mm 6 mps 752 mmHg 83%
    07:00 +27°C° 0 mm 6 mps 752 mmHg 78%
    08:00 +28°C° 0 mm 7 mps 753 mmHg 72%
    09:00 +29°C° 0 mm 8 mps 753 mmHg 67%
    10:00 +32°C° 0 mm 8 mps 753 mmHg 61%
    11:00 +33°C° 0 mm 8 mps 752 mmHg 55%
    12:00 +34°C° 0 mm 8 mps 752 mmHg 49%
    13:00 +34°C° 0 mm 8 mps 751 mmHg 49%
    14:00 +35°C° 0 mm 8 mps 751 mmHg 48%
    15:00 +35°C° 0 mm 8 mps 750 mmHg 48%
    16:00 +33°C° 0 mm 8 mps 750 mmHg 54%
    17:00 +30°C° 0 mm 7 mps 751 mmHg 60%
    18:00 +29°C° 0 mm 7 mps 751 mmHg 66%
    19:00 +28°C° 0 mm 7 mps 752 mmHg 68%
    20:00 +28°C° 0 mm 7 mps 753 mmHg 70%
    21:00 +27°C° 0 mm 7 mps 753 mmHg 72%
    22:00 +27°C° 0 mm 7 mps 753 mmHg 74%
    23:00 +26°C° 0 mm 7 mps 753 mmHg 76%

    26 February, Tuesday

    Time Temperature Precipitation Wind Pressure Humidity
    00:00 +26°C° 0 mm 7 mps 753 mmHg 78%
    01:00 +24°C° 0 mm 7 mps 753 mmHg 79%
    02:00 +24°C° 0 mm 6 mps 752 mmHg 81%
    03:00 +24°C° 0 mm 6 mps 752 mmHg 82%
    04:00 +23°C° 0 mm 6 mps 752 mmHg 83%
    05:00 +23°C° 0 mm 6 mps 753 mmHg 84%
    06:00 +23°C° 0 mm 6 mps 753 mmHg 84%
    07:00 +26°C° 0 mm 8 mps 754 mmHg 75%
    08:00 +28°C° 0 mm 9 mps 754 mmHg 65%
    09:00 +31°C° 0 mm 10 mps 754 mmHg 55%
    10:00 +32°C° 0 mm 10 mps 754 mmHg 50%
    11:00 +34°C° 0 mm 9 mps 753 mmHg 45%
    12:00 +35°C° 0 mm 9 mps 752 mmHg 41%
    13:00 +35°C° 0 mm 9 mps 752 mmHg 40%
    14:00 +35°C° 0 mm 9 mps 751 mmHg 39%
    15:00 +35°C° 0 mm 9 mps 751 mmHg 38%
    16:00 +34°C° 0 mm 9 mps 751 mmHg 45%
    17:00 +32°C° 0 mm 8 mps 751 mmHg 51%
    18:00 +29°C° 0 mm 7 mps 752 mmHg 58%
    19:00 +28°C° 0 mm 7 mps 752 mmHg 61%
    20:00 +27°C° 0 mm 7 mps 753 mmHg 65%
    21:00 +26°C° 0 mm 6 mps 754 mmHg 69%
    22:00 +26°C° 0 mm 6 mps 753 mmHg 74%
    23:00 +24°C° 0 mm 6 mps 753 mmHg 78%
    Show more